Simultaneous Nadir Overpasses (SNOs) Predictions

Prediction of SNOs between GOES-16 and TERRA Satellite Orbit:

Table of predicted SNOs for the next 14.0 days since TLE Epoch: 3/18/2023
Index Date Time (GOES-16) GOES-16 Lat,Lon TERRA Lat,Lon Distance(km) Time Diff (sec)
1 03/18/2023 15:13:27 0.06, -75.21 0.19, -75.70 56.05 80
2 03/20/2023 14:54:44 0.06, -75.23 -0.65, -71.83 386.54 80
3 03/21/2023 03:17:48 -0.06, -75.22 -0.41, -76.78 177.84 80
4 03/23/2023 02:59:04 -0.06, -75.24 0.41, -72.90 266.01 80
5 03/23/2023 15:22:00 0.06, -75.26 0.61, -77.83 291.14 80
6 03/25/2023 15:03:16 0.06, -75.30 -0.24, -73.95 153.48 80
7 03/26/2023 03:26:20 -0.06, -75.29 -0.79, -78.91 410.34 80
8 03/28/2023 03:07:35 -0.05, -75.32 0.03, -75.02 34.98 80
9 03/30/2023 02:51:29 -0.05, -75.36 0.82, -71.13 480.80 80
10 03/30/2023 15:14:25 0.05, -75.39 0.19, -76.06 75.98 80
